Torna al catalogo

FENGYUN 1C DEB

AttivoSSO
NORAD 30555·DEBRIS·🇨🇳 China

Lanciato May 10, 1999 da Taiyuan Satellite Launch Center

Loading…

Prossimi Passaggi (prossime 24 ore)

TLE

AggiornatoSource: Space-Track

Epoca: Sep 14, 2026, 09:40 UTC

1 30555U 99025AKV 26257.40282675  .00001553  00000-0  71503-3 0  9992
2 30555  98.7354 313.3801 0042775 195.7964 228.3396 14.22079597  8536

Traccia FENGYUN 1C DEB in tempo reale con AllMySat

Download on the App Store